Lid_Strength_Index
2 3 4 3 2 4 4 4 2 2 1 1 1 1 1 2 2 2 2 2 2 3
3 3 3 4 3 4 4 4 3 3 3 3 3 2 1 2 2 2 2 3 3 3
3 3 3 3 3 3 2 2 2 2 2 2 2 2 2 2 2 3 3 4 3 3
3 3 3 3 2 2 2 2 3 3 3 3 3 3 3 3 3 3 3 3 3 3
2 2 2 2 2 1 1 2 2 2 2 2 2 2 3 3 3 3 3 3 3 3
3 3 3 2 2 1 2 2 2 2 3 3 3 3 2 2 2 2 2 2 2 3
4 4 3 3 2 3 3 3 3 3 3 3 3 2 2 2 2 2 3 3 3 3
5 5 4 5 4 4 4 3 3 4 3 3 3 3 3 4 4 4 4 4 3 3
6 6 6 5 5 4 4 4 4 4 3 3 3 7 8 7 5 5 5 4 4 4
8 7 6 6 5 5 4 4 4 3 3 3 3 8 9 8 6 5 5 5 5 5
7 7 6 5 5 4 4 4 4 4 4 5 6 9 9 9 5 6 6 7 6 7
7 6 6 6 6 6 5 4 4 5 6 6 6 10 9 9 7 7 8 8 8 8
7 6 6 7 6 6 6 6 6 7 7 8 7 9 10 10 9 9 10 9 8 8
6 6 6 6 7 7 7 8 8 8 7 7 8 9 11 11 11 11 11 9 8 7